This is the latest recevied weather packets stored in our database for station/object K8MUD. If no packets are shown the sender has not sent any weather packets the latest 10 day(s).
| Time | Temp. | Humidity | Pressure | Rain* | Wind** | Luminosity | Snow |
|---|---|---|---|---|---|---|---|
| 1778054232 | 10.56° C | 63% | 1007.9 hPa | 0 mm | - | - | - |
| 1778053932 | 10° C | 60% | 1007.7 hPa | 0 mm | - | - | - |
| 1778053632 | 10° C | 59% | 1007.6 hPa | 0 mm | - | - | - |
| 1778053331 | 10° C | 59% | 1007.7 hPa | 0 mm | - | - | - |
| 1778053031 | 10° C | 59% | 1007.5 hPa | 0 mm | - | - | - |
| 1778052731 | 10° C | 60% | 1007.4 hPa | 0 mm | - | - | - |
| 1778052431 | 10° C | 60% | 1007.5 hPa | 0 mm | - | - | - |
| 1778052131 | 10° C | 61% | 1007.5 hPa | 0 mm | - | - | - |
| 1778051831 | 10° C | 63% | 1007.7 hPa | 0 mm | - | - | - |
| 1778051531 | 10° C | 68% | 1007.6 hPa | 0 mm | - | - | - |
| 1778051231 | 10° C | 70% | 1007.5 hPa | 0 mm | - | - | - |
| 1778050931 | 10° C | 71% | 1007.3 hPa | 0 mm | - | - | - |
| 1778050631 | 10° C | 71% | 1007.7 hPa | 0 mm | - | - | - |
| 1778050331 | 10° C | 71% | 1007.7 hPa | 0 mm | - | - | - |
| 1778050031 | 10° C | 71% | 1007.7 hPa | 0 mm | - | - | - |
| 1778049731 | 10° C | 71% | 1007.8 hPa | 0 mm | - | - | - |
| 1778049431 | 10° C | 71% | 1007.6 hPa | 0 mm | - | - | - |
| 1778049131 | 10° C | 70% | 1007.7 hPa | 0 mm | - | - | - |
| 1778048830 | 10° C | 70% | 1007.8 hPa | 0 mm | - | - | - |
| 1778048530 | 10° C | 70% | 1007.9 hPa | 0 mm | - | - | - |
| 1778048230 | 10° C | 70% | 1007.8 hPa | 0 mm | - | - | - |
| 1778047930 | 10° C | 70% | 1007.7 hPa | 0 mm | - | - | - |
| 1778047630 | 10° C | 69% | 1007.7 hPa | 0 mm | - | - | - |
| 1778047330 | 10° C | 68% | 1007.7 hPa | 0 mm | - | - | - |
| 1778047030 | 10° C | 68% | 1007.6 hPa | 0 mm | - | - | - |
* Rain latest hour (hover to see other rain measurements)
** Current wind speed in m/s (hover to see current wind gust speed)